Location: Newark
(25.3833°N, 97.4000°E)
Time: 20:12:15
(UTC+00:00)

CAS-4A - Pass Details

Date: 04 March 2020
Orbit: 528 x 545 km, 43.0° (Epoch: 30 March)

Event Time Altitude Azimuth Distance (km) Brightness Sun altitude
Rises 22:58:12 0° 184° (S) 2,664 ? -12.4°
Reaches altitude 10° 23:02:31 10° 141° (SE) 1,772 ? -11.4°
Maximum altitude 23:03:05 10° 133° (SE) 1,756 ? -11.3°
Drops below altitude 10° 23:03:39 10° 125° (SE) 1,771 ? -11.2°
Sets 23:07:56 0° 82° (E) 2,659 ? -10.2°
